QPF
0.00 0.00 0.00 0.00 0.02 0.00 0.00 0.00 0.00 0.00 0.00 0.01 0.00 0.01 0.00 0.00 0.00 0.00 0.00 0.00 0.00 0.00 0.00 0.00 0.00 0.00 0.00 0.00 0.00 0.00 0.00 0.00 0.00 0.00 0.00 0.00 0.02 0.03 0.06 0.06 0.00 0.00 0.00 0.01 0.05 0.03 0.01 0.00 0.00
0.00 0.00 0.00 0.01 0.02 0.00 0.01 0.00 0.00 0.00 0.00 0.00 0.00 0.03 0.00 0.00 0.00 0.00 0.00 0.00 0.00 0.00 0.00 0.00 0.00 0.00 0.00 0.00 0.00 0.00 0.00 0.00 0.00 0.00 0.00 0.01 0.04 0.01 0.06 0.06 0.01 0.00 0.00 0.01 0.03 0.00 0.01 0.01 0.00
0.00 0.00 0.00 0.00 0.00 0.00 0.03 0.00 0.00 0.00 0.00 0.00 0.00 0.00 0.00 0.00 0.00 0.00 0.00 0.00 0.00 0.00 0.00 0.00 0.00 0.00 0.00 0.00 0.00 0.01 0.00 0.00 0.00 0.00 0.00 0.00 0.00 0.03 0.00 0.01 0.04 0.00 0.00 0.01 0.02 0.00 0.00 0.00 0.00
0.00 0.00 0.00 0.00 0.00 0.00 0.00 0.00 0.00 0.00 0.00 0.00 0.00 0.00 0.00 0.00 0.00 0.00 0.00 0.00 0.00 0.00 0.00 0.00 0.00 0.00 0.00 0.00 0.00 0.00 0.00 0.00 0.00 0.00 0.00 0.00 0.01 0.02 0.02 0.01 0.01 0.01 0.01 0.01 0.01 0.00 0.00 0.01 0.02
0.00 0.00 0.00 0.00 0.01 0.02 0.00 0.00 0.00 0.00 0.00 0.00 0.00 0.00 0.00 0.00 0.00 0.00 0.00 0.00 0.00 0.00 0.00 0.00 0.00 0.00 0.00 0.00 0.00 0.00 0.00 0.00 0.00 0.00 0.00 0.00 0.00 0.00 0.03 0.00 0.00 0.01 0.01 0.00 0.00 0.00 0.01 0.05 0.02
0.00 0.00 0.00 0.00 0.00 0.00 0.00 0.00 0.00 0.00 0.00 0.00 0.00 0.00 0.00 0.00 0.00 0.00 0.00 0.00 0.00 0.00 0.00 0.00 0.00 0.00 0.00 0.00 0.00 0.00 0.00 0.00 0.00 0.00 0.00 0.01 0.01 0.01 0.00 0.00 0.00 0.00 0.00 0.00 0.00 0.00 0.00 0.00 0.00
0.00 0.00 0.00 0.00 0.00 0.00 0.00 0.00 0.00 0.00 0.00 0.00 0.00 0.00 0.00 0.00 0.00 0.00 0.00 0.00 0.00 0.00 0.00 0.00 0.00 0.00 0.00 0.00 0.00 0.00 0.00 0.00 0.00 0.00 0.01 0.00 0.00 0.02 0.01 0.00 0.00 0.00 0.00 0.00 0.00 0.00 0.00 0.00 0.00
0.00 0.00 0.00 0.00 0.00 0.00 0.00 0.00 0.01 0.01 0.00 0.00 0.00 0.00 0.00 0.00 0.00 0.00 0.00 0.00 0.00 0.00 0.00 0.00 0.00 0.00 0.00 0.00 0.00 0.00 0.00 0.00 0.00 0.00 0.00 0.00 0.00 0.00 0.02 0.00 0.00 0.00 0.00 0.00 0.00 0.00 0.00 0.00 0.00
0.00 0.00 0.00 0.00 0.00 0.00 0.00 0.00 0.00 0.01 0.00 0.00 0.00 0.00 0.00 0.00 0.00 0.00 0.00 0.00 0.00 0.00 0.00 0.00 0.00 0.00 0.00 0.00 0.00 0.00 0.00 0.00 0.00 0.00 0.00 0.00 0.00 0.00 0.00 0.00 0.00 0.00 0.00 0.00 0.01 0.01 0.04 0.00 0.00
0.00 0.00 0.00 0.00 0.00 0.00 0.00 0.00 0.00 0.00 0.01 0.00 0.00 0.00 0.00 0.00 0.00 0.00 0.00 0.00 0.00 0.00 0.00 0.00 0.00 0.00 0.00 0.00 0.00 0.00 0.00 0.00 0.00 0.00 0.00 0.00 0.00 0.00 0.00 0.00 0.00 0.00 0.00 0.01 0.00 0.00 0.00 0.00 0.00
0.00 0.00 0.00 0.00 0.00 0.00 0.00 0.00 0.00 0.00 0.03 0.00 0.00 0.00 0.00 0.00 0.00 0.00 0.00 0.00 0.00 0.00 0.00 0.00 0.00 0.00 0.00 0.00 0.00 0.00 0.00 0.00 0.00 0.00 0.00 0.00 0.00 0.00 0.00 0.00 0.00 0.00 0.00 0.04 0.01 0.00 0.01 0.01 0.00
0.00 0.00 0.00 0.00 0.00 0.00 0.00 0.00 0.00 0.00 0.03 0.00 0.00 0.00 0.00 0.00 0.00 0.00 0.00 0.00 0.00 0.00 0.00 0.00 0.00 0.00 0.00 0.00 0.00 0.00 0.00 0.00 0.00 0.00 0.00 0.00 0.00 0.00 0.00 0.00 0.00 0.00 0.00 0.02 0.00 0.00 0.00 0.00 0.01
0.00 0.00 0.00 0.00 0.00 0.00 0.00 0.00 0.00 0.00 0.00 0.00 0.00 0.00 0.00 0.00 0.00 0.00 0.00 0.00 0.00 0.00 0.00 0.00 0.00 0.00 0.00 0.00 0.00 0.00 0.00 0.00 0.00 0.00 0.00 0.00 0.00 0.00 0.00 0.00 0.00 0.00 0.00 0.00 0.00 0.00 0.00 0.01 0.03
0.00 0.00 0.00 0.00 0.00 0.00 0.00 0.00 0.00 0.00 0.00 0.00 0.00 0.00 0.00 0.00 0.00 0.00 0.00 0.00 0.00 0.00 0.00 0.00 0.00 0.00 0.00 0.00 0.00 0.00 0.00 0.00 0.00 0.00 0.00 0.00 0.00 0.00 0.00 0.00 0.00 0.00 0.00 0.11 0.14 0.11 0.04 0.06 0.08
0.00 0.00 0.00 0.00 0.00 0.00 0.00 0.00 0.00 0.00 0.00 0.00 0.00 0.00 0.00 0.00 0.00 0.00 0.00 0.00 0.00 0.00 0.00 0.00 0.00 0.00 0.00 0.00 0.00 0.00 0.00 0.00 0.00 0.00 0.00 0.00 0.00 0.00 0.00 0.00 0.00 0.00 0.01 0.09 0.20 0.14 0.09 0.10 0.06
0.00 0.01 0.00 0.00 0.00 0.00 0.00 0.00 0.00 0.00 0.00 0.00 0.00 0.00 0.00 0.00 0.00 0.00 0.00 0.00 0.00 0.00 0.00 0.00 0.00 0.00 0.00 0.00 0.00 0.00 0.00 0.00 0.00 0.00 0.00 0.00 0.00 0.00 0.00 0.01 0.00 0.00 0.00 0.01 0.07 0.08 0.09 0.12 0.02
0.00 0.00 0.00 0.00 0.00 0.00 0.00 0.00 0.00 0.00 0.00 0.00 0.00 0.00 0.00 0.00 0.00 0.00 0.00 0.00 0.00 0.00 0.00 0.00 0.00 0.00 0.00 0.00 0.00 0.00 0.00 0.00 0.00 0.00 0.00 0.00 0.00 0.00 0.00 0.01 0.00 0.00 0.00 0.08 0.12 0.01 0.00 0.00 0.00
0.00 0.00 0.00 0.00 0.00 0.00 0.00 0.00 0.00 0.00 0.00 0.00 0.00 0.00 0.00 0.00 0.00 0.00 0.00 0.00 0.00 0.00 0.00 0.00 0.00 0.00 0.00 0.00 0.00 0.00 0.00 0.00 0.00 0.00 0.00 0.00 0.00 0.00 0.00 0.00 0.00 0.00 0.00 0.06 0.06 0.03 0.00 0.00 0.00
0.00 0.00 0.00 0.00 0.00 0.00 0.00 0.00 0.00 0.00 0.00 0.00 0.00 0.00 0.00 0.00 0.00 0.00 0.00 0.00 0.00 0.00 0.00 0.00 0.00 0.00 0.00 0.00 0.00 0.00 0.00 0.00 0.00 0.00 0.00 0.00 0.00 0.00 0.00 0.00 0.00 0.00 0.00 0.00 0.00 0.02 0.08 0.05 0.00
0.00 0.00 0.00 0.00 0.00 0.00 0.00 0.00 0.00 0.00 0.00 0.00 0.00 0.00 0.00 0.00 0.00 0.00 0.00 0.00 0.00 0.00 0.00 0.00 0.00 0.00 0.00 0.00 0.00 0.00 0.00 0.00 0.00 0.00 0.00 0.00 0.00 0.00 0.00 0.00 0.00 0.00 0.01 0.01 0.04 0.05 0.11 0.02 0.00
0.00 0.00 0.00 0.00 0.00 0.00 0.00 0.00 0.00 0.00 0.00 0.00 0.00 0.00 0.00 0.00 0.00 0.00 0.00 0.00 0.00 0.00 0.00 0.00 0.00 0.00 0.00 0.00 0.00 0.00 0.00 0.00 0.00 0.00 0.00 0.00 0.00 0.00 0.00 0.00 0.00 0.00 0.00 0.03 0.03 0.00 0.03 0.00 0.00
0.00 0.00 0.00 0.00 0.00 0.00 0.00 0.00 0.00 0.00 0.00 0.00 0.00 0.00 0.00 0.00 0.00 0.00 0.00 0.00 0.00 0.00 0.00 0.00 0.00 0.00 0.00 0.00 0.00 0.00 0.00 0.00 0.00 0.00 0.00 0.00 0.00 0.00 0.00 0.00 0.00 0.05 0.07 0.06 0.03 0.01 0.03 0.01 0.00
0.00 0.00 0.00 0.00 0.00 0.00 0.00 0.00 0.00 0.00 0.00 0.00 0.00 0.00 0.00 0.00 0.00 0.00 0.00 0.00 0.00 0.00 0.00 0.00 0.00 0.00 0.00 0.00 0.00 0.00 0.00 0.00 0.00 0.00 0.00 0.00 0.00 0.00 0.00 0.00 0.00 0.02 0.06 0.04 0.03 0.00 0.00 0.00 0.01
0.00 0.00 0.00 0.00 0.00 0.00 0.00 0.00 0.00 0.00 0.00 0.00 0.00 0.00 0.00 0.00 0.00 0.00 0.00 0.00 0.00 0.00 0.00 0.00 0.00 0.00 0.00 0.00 0.00 0.00 0.00 0.00 0.00 0.00 0.00 0.00 0.00 0.00 0.00 0.00 0.00 0.00 0.02 0.04 0.02 0.01 0.01 0.00 0.00
0.00 0.00 0.00 0.00 0.00 0.00 0.00 0.00 0.00 0.00 0.00 0.00 0.00 0.00 0.00 0.00 0.00 0.00 0.00 0.00 0.00 0.00 0.00 0.00 0.00 0.00 0.00 0.00 0.00 0.00 0.00 0.00 0.00 0.00 0.00 0.00 0.00 0.00 0.00 0.00 0.00 0.00 0.03 0.02 0.03 0.01 0.03 0.00 0.00
0.00 0.00 0.00 0.00 0.00 0.00 0.00 0.00 0.00 0.00 0.00 0.00 0.00 0.00 0.00 0.00 0.00 0.00 0.00 0.00 0.00 0.00 0.00 0.00 0.00 0.00 0.00 0.00 0.00 0.00 0.00 0.00 0.00 0.00 0.00 0.00 0.00 0.00 0.00 0.00 0.00 0.00 0.00 0.00 0.00 0.00 0.00 0.00 0.00
0.00 0.00 0.00 0.00 0.00 0.00 0.00 0.00 0.00 0.00 0.00 0.00 0.00 0.00 0.00 0.00 0.00 0.00 0.00 0.00 0.00 0.00 0.00 0.00 0.00 0.00 0.00 0.00 0.00 0.00 0.00 0.00 0.00 0.00 0.00 0.00 0.00 0.00 0.00 0.00 0.00 0.00 0.00 0.00 0.00 0.00 0.00 0.00 0.00
0.00 0.00 0.00 0.00 0.00 0.00 0.00 0.00 0.00 0.00 0.00 0.00 0.00 0.00 0.00 0.00 0.00 0.00 0.00 0.00 0.00 0.00 0.00 0.00 0.00 0.00 0.00 0.00 0.00 0.00 0.00 0.00 0.00 0.00 0.00 0.00 0.00 0.00 0.00 0.00 0.00 0.00 0.00 0.00 0.00 0.00 0.00 0.00 0.00
0.00 0.00 0.00 0.00 0.00 0.00 0.00 0.00 0.00 0.00 0.00 0.00 0.00 0.00 0.00 0.00 0.00 0.00 0.00 0.00 0.00 0.00 0.00 0.00 0.00 0.00 0.00 0.00 0.00 0.00 0.00 0.00 0.00 0.00 0.00 0.00 0.00 0.00 0.00 0.00 0.00 0.00 0.00 0.01 0.00 0.00 0.00 0.00 0.00
0.00 0.00 0.00 0.00 0.00 0.00 0.00 0.00 0.00 0.00 0.00 0.00 0.00 0.00 0.00 0.00 0.00 0.00 0.00 0.00 0.00 0.00 0.00 0.00 0.00 0.00 0.00 0.00 0.00 0.00 0.00 0.00 0.00 0.00 0.00 0.00 0.00 0.00 0.00 0.00 0.00 0.00 0.02 0.02 0.01 0.00 0.00 0.00 0.00
MSLP
1009.96 1010.09 1010.45 1010.66 1011.61 1011.40 1011.32 1010.72 1010.03 1009.88 1009.96 1010.17 1010.62 1011.23 1012.09 1012.72 1013.25 1014.23 1013.84 1013.88 1013.95 1014.49 1014.76 1014.95 1015.07 1015.06 1015.36 1015.61 1015.71 1015.89 1016.17 1016.34 1016.19 1016.14 1016.14 1016.32 1016.32 1016.45 1016.62 1016.80 1016.87 1016.82 1016.94 1017.19 1017.25 1017.36 1017.43 1017.48 1017.57
1010.00 1010.29 1010.62 1011.25 1011.74 1011.72 1011.17 1010.36 1009.92 1009.73 1009.86 1010.12 1010.58 1011.22 1011.95 1012.84 1013.22 1013.83 1014.17 1014.04 1014.01 1014.40 1014.70 1015.06 1015.23 1015.32 1015.46 1015.66 1015.80 1016.12 1016.27 1016.44 1016.32 1016.30 1016.44 1016.64 1016.65 1016.74 1016.80 1016.88 1017.00 1017.02 1017.11 1017.38 1017.38 1017.54 1017.64 1017.69 1017.87
1009.99 1010.07 1010.78 1011.31 1011.54 1011.47 1010.84 1009.99 1009.71 1009.74 1009.77 1009.91 1010.67 1011.30 1012.04 1012.98 1013.55 1013.74 1013.69 1014.00 1014.16 1014.62 1014.89 1015.17 1015.39 1015.51 1015.60 1015.73 1016.01 1016.24 1016.44 1016.48 1016.47 1016.46 1016.70 1016.87 1016.87 1017.00 1017.01 1017.02 1017.02 1017.14 1017.35 1017.47 1017.59 1017.82 1017.95 1018.00 1018.07
1009.97 1010.54 1011.02 1011.05 1011.10 1010.50 1010.00 1009.55 1009.51 1009.65 1009.71 1010.01 1010.76 1011.74 1012.37 1012.51 1013.15 1013.50 1013.79 1014.06 1014.55 1014.90 1015.12 1015.23 1015.43 1015.52 1015.68 1015.91 1016.11 1016.36 1016.49 1016.65 1016.65 1016.74 1016.96 1016.98 1017.08 1017.12 1017.21 1017.22 1017.17 1017.29 1017.50 1017.72 1017.92 1018.08 1018.09 1018.24 1018.25
1010.21 1010.73 1011.18 1011.09 1010.51 1009.93 1009.40 1009.41 1009.51 1009.65 1009.89 1010.44 1010.94 1012.27 1012.94 1013.14 1013.10 1013.62 1014.00 1014.31 1014.72 1015.18 1015.28 1015.30 1015.50 1015.63 1015.84 1016.02 1016.22 1016.41 1016.54 1016.77 1016.83 1016.97 1017.08 1017.10 1017.20 1017.32 1017.43 1017.38 1017.39 1017.51 1017.72 1017.84 1017.97 1018.14 1018.12 1018.34 1018.37
1010.47 1011.06 1011.39 1011.15 1010.51 1009.83 1009.29 1009.17 1009.48 1009.83 1010.33 1010.86 1011.49 1012.37 1013.35 1013.48 1013.62 1014.00 1014.32 1014.70 1014.83 1015.25 1015.42 1015.55 1015.64 1015.75 1015.96 1016.15 1016.31 1016.54 1016.67 1016.86 1016.99 1017.14 1017.20 1017.31 1017.32 1017.39 1017.40 1017.47 1017.51 1017.69 1017.85 1017.98 1018.09 1018.08 1018.11 1018.29 1018.35
1010.55 1011.19 1011.39 1010.84 1010.22 1009.64 1009.16 1009.20 1009.75 1010.09 1010.47 1010.90 1011.26 1012.57 1013.55 1013.76 1013.96 1014.26 1014.60 1014.98 1015.10 1015.37 1015.59 1015.72 1015.73 1015.79 1015.95 1016.19 1016.39 1016.55 1016.69 1016.86 1017.06 1017.25 1017.33 1017.44 1017.48 1017.52 1017.57 1017.61 1017.67 1017.86 1017.96 1018.01 1018.08 1018.08 1018.23 1018.40 1018.46
1010.57 1010.98 1010.89 1010.30 1009.79 1009.05 1008.78 1009.25 1009.62 1009.98 1010.51 1010.85 1011.21 1012.27 1013.32 1013.55 1013.95 1014.43 1014.90 1015.27 1015.49 1015.55 1015.67 1015.92 1015.96 1015.99 1016.17 1016.36 1016.45 1016.62 1016.74 1016.85 1017.08 1017.30 1017.42 1017.61 1017.67 1017.76 1017.78 1017.79 1017.87 1018.03 1018.08 1018.16 1018.21 1018.27 1018.36 1018.35 1018.42
1010.29 1010.57 1010.25 1009.36 1009.00 1008.58 1008.49 1009.12 1009.70 1009.93 1010.53 1010.93 1011.44 1011.81 1012.29 1013.29 1013.99 1014.64 1015.21 1015.58 1015.70 1015.78 1015.93 1015.96 1016.07 1016.21 1016.39 1016.60 1016.54 1016.63 1016.79 1016.95 1017.14 1017.33 1017.45 1017.66 1017.92 1018.04 1018.00 1018.08 1018.07 1018.12 1018.23 1018.29 1018.34 1018.37 1018.54 1018.47 1018.52
1010.00 1010.21 1009.24 1008.24 1007.85 1007.87 1008.24 1008.78 1009.50 1010.19 1010.61 1011.21 1011.77 1012.10 1012.53 1013.38 1014.02 1014.64 1015.16 1015.51 1015.71 1015.82 1015.92 1016.09 1016.14 1016.25 1016.52 1016.58 1016.63 1016.83 1016.98 1017.14 1017.33 1017.54 1017.68 1017.96 1018.07 1018.24 1018.18 1018.18 1018.23 1018.24 1018.34 1018.51 1018.47 1018.54 1018.57 1018.67 1018.87
1009.82 1009.24 1008.36 1007.56 1007.19 1007.23 1008.02 1008.77 1009.32 1010.08 1010.81 1011.09 1011.54 1012.31 1012.89 1013.57 1014.16 1014.63 1014.97 1015.15 1015.25 1015.53 1015.80 1015.90 1016.12 1016.31 1016.61 1016.67 1016.80 1017.09 1017.32 1017.49 1017.64 1017.76 1017.91 1018.13 1018.24 1018.34 1018.31 1018.39 1018.47 1018.52 1018.44 1018.62 1018.56 1018.59 1018.60 1018.89 1019.04
1009.58 1008.32 1007.92 1007.38 1007.04 1007.37 1007.78 1008.56 1009.30 1009.71 1009.89 1010.27 1011.23 1011.66 1012.62 1013.45 1013.87 1014.26 1014.70 1015.03 1015.31 1015.48 1015.61 1015.76 1016.02 1016.45 1016.67 1016.72 1016.87 1017.15 1017.41 1017.57 1017.79 1017.93 1018.06 1018.27 1018.37 1018.42 1018.42 1018.46 1018.52 1018.56 1018.55 1018.68 1018.70 1018.78 1018.70 1018.76 1018.86
1009.01 1007.92 1007.17 1006.78 1007.22 1007.44 1007.87 1008.46 1009.06 1009.56 1009.69 1010.31 1011.28 1011.93 1012.50 1012.98 1013.43 1014.04 1014.43 1014.82 1015.12 1015.34 1015.45 1015.65 1015.96 1016.34 1016.50 1016.67 1016.91 1017.16 1017.31 1017.49 1017.68 1017.83 1017.91 1018.09 1018.23 1018.30 1018.34 1018.31 1018.39 1018.47 1018.52 1018.64 1018.69 1018.80 1018.82 1018.80 1018.78
1008.06 1007.62 1007.11 1006.55 1007.10 1007.57 1007.99 1008.72 1009.05 1009.74 1010.02 1010.74 1011.35 1011.90 1012.39 1012.77 1013.15 1013.73 1014.05 1014.29 1014.60 1014.84 1015.04 1015.34 1015.69 1015.89 1016.24 1016.55 1016.79 1016.98 1017.23 1017.38 1017.58 1017.70 1017.73 1017.92 1018.13 1018.27 1018.33 1018.28 1018.26 1018.28 1018.30 1018.59 1018.65 1018.73 1018.63 1018.59 1018.64
1007.52 1007.51 1007.34 1007.24 1007.22 1007.80 1008.29 1009.27 1009.20 1009.61 1010.17 1010.79 1011.34 1011.79 1012.31 1012.55 1012.96 1012.99 1013.23 1013.69 1013.97 1014.29 1014.57 1014.88 1015.19 1015.42 1015.98 1016.34 1016.51 1016.73 1016.92 1017.08 1017.25 1017.33 1017.52 1017.67 1017.87 1018.04 1018.12 1018.17 1018.07 1018.00 1018.09 1018.26 1018.57 1018.70 1018.52 1018.49 1018.20
1007.94 1007.86 1007.89 1007.27 1007.34 1007.89 1008.15 1008.80 1009.20 1009.65 1010.29 1010.90 1011.25 1011.60 1011.93 1012.22 1012.14 1012.36 1012.70 1013.15 1013.58 1013.99 1014.36 1014.70 1015.02 1015.45 1015.85 1016.14 1016.27 1016.40 1016.60 1016.77 1016.87 1017.00 1017.17 1017.34 1017.48 1017.70 1017.94 1018.08 1017.89 1017.86 1017.85 1017.92 1018.05 1018.28 1018.32 1018.26 1018.05
1008.63 1008.42 1007.87 1007.34 1007.01 1007.69 1008.36 1008.75 1008.93 1009.39 1010.16 1010.85 1011.05 1011.21 1011.45 1011.75 1011.96 1011.97 1012.16 1012.56 1012.98 1013.36 1013.92 1014.42 1014.75 1014.98 1015.33 1015.61 1015.87 1016.14 1016.33 1016.51 1016.44 1016.63 1016.77 1016.94 1017.08 1017.29 1017.59 1017.67 1017.55 1017.69 1017.72 1018.01 1018.23 1018.23 1018.27 1017.95 1017.65
1008.86 1008.64 1007.77 1007.42 1007.19 1007.50 1008.06 1008.51 1008.88 1009.14 1009.56 1010.20 1010.59 1010.78 1010.94 1011.09 1010.81 1010.99 1011.46 1011.93 1012.43 1012.88 1013.41 1013.87 1014.37 1014.65 1015.03 1015.51 1015.88 1016.22 1016.47 1016.44 1016.43 1016.42 1016.52 1016.60 1016.76 1016.96 1017.24 1017.34 1017.43 1017.59 1017.77 1018.08 1018.18 1018.17 1017.83 1017.62 1017.38
1008.18 1008.06 1007.65 1006.77 1006.81 1007.37 1007.55 1008.04 1008.26 1008.65 1009.34 1009.63 1010.11 1010.23 1010.27 1010.23 1009.79 1010.40 1010.72 1011.23 1011.92 1012.51 1013.15 1013.58 1014.11 1014.40 1014.95 1015.53 1016.01 1016.29 1016.40 1016.31 1016.23 1016.06 1016.04 1016.25 1016.40 1016.58 1016.91 1017.16 1017.32 1017.47 1017.65 1017.74 1017.90 1017.86 1017.63 1017.26 1017.10
1007.76 1007.74 1006.98 1006.24 1006.25 1006.96 1007.46 1007.80 1007.92 1008.19 1008.04 1008.29 1008.92 1009.38 1009.43 1009.46 1009.69 1009.88 1010.26 1010.78 1011.21 1011.73 1012.35 1013.11 1013.39 1013.97 1014.39 1014.85 1015.21 1015.57 1015.80 1015.86 1015.69 1015.57 1015.72 1015.75 1015.87 1016.13 1016.47 1016.85 1017.22 1017.37 1017.49 1017.50 1017.47 1017.58 1017.49 1017.22 1016.88
1007.12 1007.00 1006.61 1006.53 1006.64 1007.16 1007.67 1008.01 1007.92 1007.54 1007.59 1007.89 1008.02 1008.26 1008.64 1008.69 1008.96 1009.34 1009.85 1010.17 1010.68 1011.35 1011.88 1012.37 1012.79 1013.35 1013.90 1014.33 1014.92 1015.54 1015.60 1015.59 1015.68 1015.67 1015.59 1015.37 1015.44 1015.67 1016.06 1016.46 1016.81 1017.14 1017.24 1017.16 1017.08 1017.21 1017.21 1016.97 1016.93
1006.42 1005.74 1006.12 1006.57 1007.36 1007.93 1007.84 1008.26 1007.38 1006.93 1006.76 1007.06 1006.99 1007.24 1007.30 1007.76 1008.14 1008.45 1009.02 1009.69 1010.18 1010.54 1011.10 1011.59 1012.20 1012.76 1013.31 1013.91 1014.54 1014.93 1015.04 1015.38 1015.32 1015.30 1015.16 1015.15 1015.25 1015.45 1015.76 1016.06 1016.29 1016.56 1016.70 1016.67 1016.60 1016.57 1016.77 1017.03 1016.84
1005.76 1005.56 1006.30 1006.57 1007.64 1008.21 1008.29 1008.86 1006.68 1006.47 1006.52 1005.94 1005.69 1005.86 1005.95 1006.43 1007.02 1007.51 1008.04 1008.52 1009.01 1009.87 1010.50 1010.99 1011.65 1012.35 1012.83 1013.36 1013.85 1014.38 1014.72 1014.80 1014.88 1014.96 1015.04 1015.10 1015.08 1015.09 1015.28 1015.44 1015.68 1015.95 1015.78 1016.00 1015.89 1016.07 1016.13 1016.06 1016.42
1005.22 1005.99 1006.87 1007.74 1008.38 1009.25 1008.04 1008.47 1005.95 1005.92 1004.35 1004.14 1004.25 1004.75 1004.68 1005.39 1005.85 1006.53 1007.01 1007.72 1008.44 1009.21 1009.94 1010.55 1011.13 1011.68 1012.24 1012.77 1013.33 1013.77 1014.14 1014.46 1014.81 1014.81 1014.82 1014.82 1014.79 1014.92 1014.88 1014.94 1014.96 1014.87 1015.04 1015.18 1015.10 1015.35 1015.43 1015.31 1015.76
1005.52 1006.77 1007.76 1008.84 1009.58 1009.39 1008.31 1007.98 1005.10 1003.54 1003.06 1002.24 1002.15 1002.83 1003.27 1004.02 1004.88 1005.83 1006.48 1006.96 1007.62 1008.42 1009.15 1009.88 1010.54 1011.18 1011.65 1012.21 1012.70 1013.06 1013.44 1013.90 1014.13 1014.23 1014.35 1014.60 1014.77 1014.81 1014.62 1014.79 1014.79 1014.65 1014.58 1014.52 1014.63 1015.10 1015.24 1015.14 1015.15
1005.70 1006.69 1007.93 1008.95 1010.07 1009.22 1008.29 1006.84 1003.42 1001.93 1001.35 1001.02 1001.18 1001.28 1002.08 1003.14 1003.95 1004.69 1005.16 1005.87 1006.65 1007.40 1008.10 1008.84 1009.63 1010.29 1010.96 1011.52 1011.97 1012.42 1012.84 1013.22 1013.54 1013.78 1013.87 1013.97 1014.15 1014.19 1014.22 1014.21 1014.26 1014.22 1014.18 1014.26 1014.48 1014.71 1014.71 1014.81 1014.85
1005.41 1006.52 1007.19 1008.43 1009.78 1009.61 1007.62 1005.63 1002.74 1001.40 1001.04 1000.66 1000.66 1001.41 1001.84 1002.39 1002.99 1003.57 1004.24 1004.90 1005.63 1006.34 1006.98 1007.78 1008.66 1009.39 1010.04 1010.47 1011.06 1011.62 1012.09 1012.66 1012.98 1013.17 1013.39 1013.56 1013.73 1013.88 1014.02 1013.93 1013.96 1013.91 1013.96 1014.02 1014.09 1014.25 1014.32 1014.38 1014.39
1004.67 1005.50 1007.11 1008.62 1009.66 1009.54 1007.73 1006.07 1003.51 1001.76 1000.78 1000.76 1000.86 1000.85 1001.30 1001.64 1002.20 1002.48 1003.39 1003.98 1004.62 1005.11 1005.83 1006.80 1007.54 1008.20 1008.64 1009.49 1010.18 1010.67 1011.19 1011.62 1011.98 1012.52 1013.01 1013.21 1013.31 1013.58 1013.78 1013.78 1013.84 1013.85 1013.84 1013.79 1013.89 1013.96 1014.18 1014.39 1014.21
1005.56 1005.82 1006.95 1008.08 1008.85 1009.04 1007.95 1005.92 1002.57 1001.58 1001.08 1000.76 1000.63 1000.63 1000.82 1001.31 1001.46 1001.57 1002.28 1002.79 1003.35 1004.06 1005.09 1005.55 1006.52 1007.29 1008.09 1008.66 1009.16 1009.77 1010.21 1010.73 1011.47 1011.93 1012.23 1012.55 1012.97 1013.26 1013.45 1013.53 1013.69 1013.71 1013.77 1013.77 1013.92 1013.99 1013.92 1014.02 1014.01
1005.82 1006.21 1007.08 1008.29 1008.90 1008.57 1007.37 1004.60 1002.14 1001.37 1001.19 1001.08 1000.33 1000.26 1000.17 1000.06 1000.38 1000.66 1001.23 1001.91 1002.71 1003.31 1003.96 1004.75 1005.44 1006.33 1006.87 1007.41 1008.25 1008.80 1009.46 1010.09 1010.59 1011.01 1011.45 1012.06 1012.59 1012.87 1013.09 1013.31 1013.55 1013.62 1013.76 1013.75 1013.81 1013.71 1013.66 1013.79 1013.82
Thickness
5799 5799 5799 5789 5760 5756 5745 5758 5779 5772 5773 5783 5786 5777 5768 5768 5763 5748 5778 5781 5781 5778 5775 5773 5772 5773 5771 5770 5769 5768 5765 5766 5769 5770 5768 5766 5766 5765 5763 5761 5760 5761 5759 5756 5755 5753 5752 5751 5749
5801 5798 5793 5775 5749 5736 5742 5773 5770 5777 5782 5787 5785 5779 5771 5761 5773 5769 5771 5780 5780 5779 5777 5773 5772 5773 5772 5771 5771 5767 5767 5767 5770 5769 5767 5765 5765 5763 5762 5761 5760 5760 5759 5756 5755 5753 5751 5750 5748
5804 5801 5779 5765 5751 5739 5745 5775 5778 5782 5789 5789 5780 5783 5775 5765 5771 5773 5782 5782 5780 5778 5776 5774 5772 5773 5773 5773 5771 5769 5768 5769 5770 5769 5767 5765 5764 5763 5763 5762 5762 5761 5758 5756 5755 5751 5749 5748 5746
5801 5793 5784 5763 5757 5770 5772 5779 5784 5782 5790 5792 5785 5768 5778 5785 5778 5782 5784 5783 5779 5776 5776 5775 5774 5775 5774 5773 5772 5769 5770 5770 5769 5768 5766 5766 5765 5765 5764 5763 5762 5760 5757 5755 5753 5750 5749 5746 5745
5800 5786 5763 5762 5768 5777 5787 5788 5787 5780 5783 5782 5784 5764 5764 5778 5784 5784 5782 5781 5778 5777 5776 5776 5776 5775 5774 5773 5772 5771 5771 5770 5769 5768 5767 5767 5767 5766 5764 5763 5763 5761 5758 5755 5754 5752 5751 5748 5746
5783 5781 5755 5750 5766 5778 5789 5793 5787 5781 5778 5777 5772 5766 5764 5777 5778 5779 5780 5778 5777 5777 5777 5776 5775 5776 5774 5773 5773 5772 5772 5772 5769 5768 5767 5767 5768 5767 5767 5765 5764 5761 5757 5756 5755 5755 5753 5748 5748
5783 5772 5761 5766 5768 5774 5787 5796 5780 5776 5774 5771 5779 5757 5764 5771 5775 5778 5778 5777 5776 5776 5777 5776 5777 5777 5776 5774 5774 5773 5774 5774 5770 5769 5768 5768 5768 5768 5767 5767 5765 5762 5760 5759 5758 5758 5753 5749 5748
5790 5781 5769 5771 5766 5775 5796 5793 5790 5782 5774 5787 5783 5756 5754 5771 5776 5776 5776 5774 5775 5777 5777 5776 5777 5778 5776 5775 5775 5774 5775 5775 5773 5771 5769 5768 5768 5768 5768 5767 5765 5763 5762 5761 5759 5758 5755 5753 5751
5801 5772 5766 5779 5775 5784 5800 5786 5794 5796 5781 5783 5780 5774 5778 5777 5776 5772 5769 5769 5772 5776 5777 5777 5778 5778 5777 5776 5777 5776 5777 5776 5774 5773 5771 5770 5769 5768 5767 5767 5766 5764 5763 5762 5761 5759 5756 5754 5753
5793 5770 5783 5803 5804 5796 5800 5795 5790 5782 5779 5773 5769 5776 5779 5777 5774 5770 5767 5767 5771 5774 5778 5779 5780 5780 5778 5778 5778 5778 5777 5776 5775 5773 5772 5771 5770 5769 5768 5767 5766 5765 5764 5763 5762 5759 5757 5755 5752
5797 5785 5804 5812 5818 5816 5804 5797 5801 5784 5768 5774 5770 5771 5775 5774 5773 5772 5773 5775 5777 5779 5780 5782 5782 5781 5779 5779 5779 5777 5776 5775 5774 5773 5772 5771 5770 5770 5769 5768 5766 5765 5765 5764 5763 5761 5760 5756 5753
5789 5810 5811 5815 5819 5814 5806 5808 5795 5794 5790 5797 5788 5786 5780 5777 5778 5778 5778 5778 5778 5780 5782 5784 5783 5781 5780 5780 5779 5777 5776 5775 5774 5773 5772 5771 5771 5771 5771 5770 5768 5767 5767 5765 5763 5761 5760 5758 5755
5799 5813 5825 5827 5821 5818 5817 5806 5801 5799 5807 5805 5795 5790 5785 5785 5786 5786 5785 5785 5783 5782 5785 5786 5786 5784 5783 5781 5780 5779 5777 5776 5775 5775 5775 5774 5773 5773 5773 5773 5771 5769 5768 5766 5764 5763 5761 5759 5757
5819 5819 5823 5831 5823 5819 5808 5804 5807 5805 5809 5801 5797 5793 5791 5790 5792 5790 5789 5788 5787 5788 5789 5790 5788 5787 5785 5784 5782 5781 5780 5778 5776 5777 5778 5776 5775 5774 5774 5774 5772 5771 5770 5767 5766 5764 5763 5762 5759
5828 5813 5818 5821 5822 5812 5813 5793 5795 5808 5808 5801 5799 5798 5796 5795 5797 5797 5798 5795 5794 5794 5794 5794 5793 5791 5790 5787 5785 5783 5782 5781 5780 5780 5779 5779 5778 5776 5775 5775 5774 5774 5772 5770 5766 5764 5764 5763 5764
5809 5810 5789 5818 5821 5818 5815 5779 5803 5809 5804 5798 5801 5801 5800 5799 5802 5805 5805 5802 5800 5798 5796 5796 5797 5794 5791 5789 5788 5787 5785 5784 5785 5783 5782 5781 5780 5778 5777 5775 5776 5774 5773 5772 5770 5767 5766 5765 5765
5796 5780 5792 5807 5827 5818 5810 5793 5808 5812 5805 5797 5800 5803 5803 5801 5803 5808 5810 5808 5806 5804 5801 5798 5799 5798 5797 5794 5791 5790 5789 5788 5788 5787 5785 5784 5783 5781 5778 5777 5776 5774 5773 5770 5767 5767 5765 5766 5767
5782 5784 5795 5797 5816 5817 5805 5800 5809 5813 5809 5805 5804 5805 5805 5804 5810 5817 5816 5815 5812 5808 5806 5804 5801 5800 5798 5795 5792 5789 5789 5789 5789 5788 5787 5786 5784 5781 5778 5776 5775 5773 5771 5768 5766 5766 5770 5769 5770
5806 5800 5797 5818 5828 5812 5809 5808 5813 5817 5811 5809 5805 5805 5806 5809 5821 5821 5822 5821 5815 5810 5805 5804 5801 5800 5797 5792 5789 5788 5788 5789 5791 5791 5791 5789 5786 5784 5781 5778 5776 5773 5771 5770 5769 5769 5771 5773 5774
5804 5796 5801 5823 5830 5819 5810 5808 5819 5820 5821 5822 5817 5812 5814 5817 5818 5821 5822 5820 5819 5815 5812 5807 5806 5802 5802 5799 5797 5795 5793 5793 5794 5794 5792 5792 5789 5787 5783 5780 5777 5773 5771 5771 5772 5772 5772 5773 5775
5807 5803 5808 5812 5822 5823 5811 5801 5810 5825 5829 5827 5828 5827 5824 5823 5821 5823 5822 5822 5821 5817 5815 5813 5811 5808 5806 5804 5801 5797 5796 5794 5792 5792 5793 5793 5792 5790 5786 5782 5778 5773 5771 5773 5775 5776 5774 5771 5770
5796 5832 5826 5817 5803 5780 5815 5767 5804 5823 5825 5828 5831 5832 5833 5831 5832 5832 5829 5824 5823 5823 5822 5819 5817 5813 5811 5808 5803 5799 5795 5790 5793 5794 5795 5794 5792 5790 5785 5782 5779 5776 5776 5777 5780 5781 5775 5770 5766
5811 5836 5823 5820 5799 5798 5800 5779 5810 5822 5816 5828 5838 5842 5847 5844 5842 5838 5837 5836 5833 5829 5825 5823 5820 5816 5814 5812 5809 5803 5798 5798 5797 5797 5796 5795 5794 5792 5788 5785 5782 5781 5786 5785 5788 5785 5781 5778 5770
5840 5825 5807 5795 5788 5766 5794 5785 5809 5809 5834 5847 5851 5850 5856 5854 5852 5850 5849 5845 5838 5835 5830 5826 5821 5819 5818 5815 5811 5807 5802 5800 5796 5796 5796 5796 5795 5793 5790 5788 5788 5790 5792 5792 5793 5791 5787 5784 5778
5822 5794 5759 5766 5756 5760 5787 5785 5815 5847 5855 5867 5868 5866 5869 5867 5860 5854 5851 5849 5844 5838 5835 5831 5826 5821 5821 5819 5816 5813 5810 5806 5803 5803 5802 5798 5795 5792 5794 5792 5791 5793 5794 5796 5795 5790 5787 5785 5781
5805 5793 5758 5753 5745 5768 5785 5779 5826 5867 5878 5884 5887 5887 5882 5874 5867 5864 5864 5860 5854 5849 5845 5841 5835 5831 5826 5823 5821 5819 5816 5813 5810 5808 5806 5804 5801 5800 5801 5799 5796 5796 5795 5796 5794 5791 5789 5786 5783
5805 5784 5802 5764 5756 5755 5780 5810 5852 5871 5878 5883 5881 5881 5879 5879 5876 5872 5873 5870 5865 5860 5856 5851 5845 5841 5836 5833 5829 5826 5822 5816 5813 5813 5811 5808 5806 5805 5803 5803 5801 5801 5801 5798 5796 5794 5790 5789 5787
5813 5817 5780 5759 5753 5749 5769 5786 5805 5849 5867 5877 5876 5880 5882 5885 5882 5883 5878 5876 5875 5872 5868 5861 5857 5850 5848 5842 5837 5834 5830 5827 5824 5819 5813 5811 5810 5807 5804 5803 5801 5800 5799 5799 5799 5795 5792 5788 5787
5789 5787 5785 5775 5755 5742 5744 5775 5842 5856 5865 5872 5878 5882 5884 5883 5887 5890 5885 5884 5883 5880 5873 5871 5864 5858 5851 5848 5845 5840 5838 5834 5828 5822 5820 5817 5813 5809 5806 5804 5801 5798 5797 5797 5794 5793 5792 5789 5786
5802 5794 5777 5753 5760 5748 5750 5774 5856 5862 5866 5866 5875 5881 5890 5896 5896 5897 5893 5888 5883 5881 5878 5873 5870 5864 5861 5857 5851 5846 5841 5837 5833 5829 5825 5820 5813 5811 5808 5804 5800 5799 5795 5794 5791 5791 5790 5787 5783